Location: ?ejeti?ky
(50.4060°N, 14.9016°E)
Time: 00:57:25
(UTC+00:00)

N. Korean satellite - Pass Details

Date: 07 December 2021
Orbit: 446 x 492 km, 97.3° (Epoch: 16 January)

Event Time Altitude Azimuth Distance (km) Brightness Sun altitude
Rises 04:50:24 0° 7° (N) 2,469 10.1 -17.5°
Reaches altitude 10° 04:52:29 10° 1° (N) 1,588 9.0 -17.1°
Maximum altitude 04:55:44 44° 288° (WNW) 630 6.6 -16.6°
Drops below altitude 10° 04:58:58 10° 215° (SW) 1,573 9.0 -16.2°
Sets 05:01:01 0° 209° (SSW) 2,441 10.0 -15.8°
